STARLINK-11179, 60190

Orbit data source: Space-Track

STARLINK-11179, 60190 is a payload satellite owned by SpaceX/Seattle (US) in LEO that was launched on Wed, 03 Jul 2024 UTC via an FALCON 9 launch vehicle from the Air Force Eastern Test Range (AFETR). Payload-class satellites include a variety of spacecraft equipped with specific instruments for various scientific and technological missions. These include communications satellites like Starlink; space stations such as the ISS; scientific satellites like the Hubble; Earth observation satellites from companies like Planet Labs, Umbra, and HawkEye 360; GPS; miniature CubeSats for education and research; and military/defense satellites.

Loading next visibility...
Identifier
60190, 2024-124H
Orbit
LEO
Country
Flag of USUS
Related business
Manufacturer
SpaceX/Seattle
Mission
Operational Commercial Communications
Bus & Motor
STARLINK V2MD, Unknown motor
Mass
960 kg wet, ~910 kg dry
Launch date (UTC)
2024-07-03 (2 years ago)
Launch vehicle
FALCON 9
Launch site
Air Force Eastern Test Range (AFETR)
Object type
Payload
Rocket body
Debris
Shape & HBR
Box + 2 Pan, 18.1 m
Radar Cross Section
36.964 m², Large (>1 m²)

Expand to show TLE details & history
Last TLE update: 11 hours ago

TLE from 11 hours ago
0 STARLINK-11179
1 60190U 24124H   26126.71203425 -.00000299  00000-0  23987-5 0  9995
2 60190  53.1595 235.4803 0001599 117.8040 242.3140 15.69693299105647
Epoch: 2026-05-06T17:05Z
TLE epoch observation values (Epoch: 2026-05-06T17:05:19.759Z)
Latitude
-0.00002°
Longitude
114.57936°
Altitude
361.19 km
Speed
7.694 km/s
True Right ascension
15h 41m 55s
True Declination
0° 00' 00"
Sunlit
Object was in full shadow at epoch
Visualization orbit readout
Latitude
Unknown
Longitude
Unknown
Altitude
Unknown
Speed
Unknown
Apparent Right ascension
Unknown
Apparent Declination
Unknown
Sunlit
N/A
Visualization observer readout
Local Sidereal Time
12:22:24
Azimuth
Unknown
Elevation
Unknown
Doppler factor
Unknown
Orbital elements
Apogee altitude
361.113 km
Perigee altitude
358.958 km
Semi-major axis
6,738.172 km
Eccentricity
0.00016
Inclination
53.1595°
RAAN
235.4803°
Arg. of periapsis
117.804°
True anomaly
242.29778°
Mean anomaly
242.314°
Eccentric anomaly
242.30589°
Mean motion
3.92401 °/min
Orbital period
91.74 mins
BSTAR
0.0000023987
Loading maneuver chart data...
Computing Atmospheric mass density...
Loading historical data...
Loading historical data...
Loading historical data...
Loading historical data...
Loading historical data...
Loading historical data...
Loading historical data...

Documentation

Showing up to 5 results
|